Home   Weather   Oranjestad   Past weeks

Flag for Aruba Past Weather in Oranjestad, Aruba — Yesterday and Last 2 Weeks

Now
82 °F

Passing clouds.


Feels Like: 91 °F
Forecast: 83 / 90 °F
Wind: 15 mph from East

Location: Queen Beatrix Airport - Aruba

Current Time: Apr 24, 2017 at 3:17:37 am

Latest Report: Apr 24, 2017 at 1:00 am


Visibility: N/A

Pressure: 29.83 "Hg

Humidity: 84%

Dew Point: 77 °F

Location of OranjestadLocation

Past Weather in Oranjestad — Graph

°F

Oranjestad Temperature Yesterday

Maximum temperature yesterday: 91 °F (at 2:00 pm)
Minimum temperature yesterday: 81 °F (at 1:00 am)
Average temperature yesterday: 85 °F

High & Low Weather Summary for the Past Weeks

 TemperatureHumidityPressure
High91 °F (Apr 22, 12:00 pm)89% (Apr 15, 6:00 am)29.92 "Hg (Apr 15, 6:00 am)
Low79 °F (Apr 10, 6:00 am)55% (Apr 10, 12:00 pm)29.71 "Hg (Apr 23, 4:00 pm)
Average84 °F76%29.85 "Hg
* Reported Apr 9 1:00 am — Apr 24 1:00 am, Oranjestad, Weather by CustomWeather, © 2017

Note: Actual official high and low records may vary slightly from our data, if they occured in-between our weather recording intervals... More about our weather records

Advertising

Oranjestad Weather History for the Previous 24 Hours

Scroll right to see more
 ConditionsComfort  
Time TempWeatherWind HumidityBarometerVisibility
1:00 am
Mon, Apr 24
82 °FPassing clouds.15 mph84%29.83 "HgN/A
12:00 am82 °FPassing clouds.17 mph84%29.83 "HgN/A
10:00 pm
Sun, Apr 23
82 °FPassing clouds.16 mph84%29.80 "HgN/A
9:00 pm82 °FPassing clouds.15 mph84%29.80 "HgN/A
8:00 pm82 °FPassing clouds.17 mph84%29.77 "HgN/A
7:00 pm84 °FPassing clouds.16 mph79%29.74 "HgN/A
6:00 pm84 °FPassing clouds.22 mph79%29.71 "HgN/A
5:00 pm88 °FPassing clouds.21 mph70%29.71 "HgN/A
4:00 pm90 °FPassing clouds.20 mph67%29.71 "HgN/A
3:00 pm91 °FPassing clouds.22 mph67%29.74 "HgN/A
2:00 pm91 °FPassing clouds.20 mph67%29.77 "HgN/A
1:00 pm90 °FScattered clouds.20 mph67%29.83 "HgN/A
12:00 pm90 °FScattered clouds.21 mph67%29.83 "HgN/A
11:00 am90 °FPassing clouds.24 mph63%29.83 "HgN/A
8:00 am84 °FPassing clouds.16 mph74%29.83 "HgN/A
6:00 am81 °FPassing clouds.15 mph84%29.80 "HgN/A
5:00 am81 °FPassing clouds.16 mph84%29.80 "HgN/A
4:00 am81 °FPassing clouds.16 mph84%29.77 "HgN/A
Weather by CustomWeather, © 2017

See weather overviewHow to use our weather pages